User: anonymous
Location: Unspecified
(0.0000°N, 0.0000°E)
Time: 07:32:07
(UTC+02:00)
Language:

ARIANE 5 R/B - Orbit

View from above orbital plane
View from above orbital plane
View from above satellite
View from above satellite

Ground track
Ground track

The orbit data is extracted from the following two-line orbital elements,

1 28379U 04027B   14234.20033069 -.00000067  00000-0 -29491-2 0  6820
2 28379 007.3446 319.4325 7284943 104.8549 183.6979 02.07922935 76702
Epoch (UTC): 22 August 2014 04:48:28
Eccentricity: 0.7284943
inclination: 7.3446°
perigee height: 662 km
apogee height: 38441 km
right ascension of ascending node: 319.4325°
argument of perigee: 104.8549°
revolutions per day: 2.07922935
mean anomaly at epoch: 183.6979°
orbit number at epoch: 7670

The dashed part of the orbit path shows where the satellite is in the earth's shadow,  

DLR